Year,Month,Day,Hour,Minute,Value (Times are PST for temperature in C)
2007,05,29,00,00,8.40
2007,05,29,00,01,8.40
2007,05,29,00,02,8.40
2007,05,29,00,03,8.30
2007,05,29,00,04,8.30
2007,05,29,00,05,8.30
2007,05,29,00,06,8.30
2007,05,29,00,07,8.20
2007,05,29,00,08,8.20
2007,05,29,00,09,8.20
2007,05,29,00,10,8.20
2007,05,29,00,11,8.20
2007,05,29,00,12,8.20
2007,05,29,00,13,8.20
2007,05,29,00,14,8.20
2007,05,29,00,15,8.20
2007,05,29,00,16,8.20
2007,05,29,00,17,8.20
2007,05,29,00,18,8.20
2007,05,29,00,19,8.10
2007,05,29,00,20,8.10
2007,05,29,00,21,8.10
2007,05,29,00,22,8.10
2007,05,29,00,23,8.10
2007,05,29,00,24,8.00
2007,05,29,00,25,8.00
2007,05,29,00,26,8.00
2007,05,29,00,27,8.00
2007,05,29,00,28,8.00
2007,05,29,00,29,7.90
2007,05,29,00,30,7.90
2007,05,29,00,31,7.90
2007,05,29,00,32,7.90
2007,05,29,00,33,7.90
2007,05,29,00,34,7.90
2007,05,29,00,35,7.90
2007,05,29,00,36,7.90
2007,05,29,00,37,7.90
2007,05,29,00,38,7.80
2007,05,29,00,39,7.80
2007,05,29,00,40,7.80
2007,05,29,00,41,7.80
2007,05,29,00,42,7.80
2007,05,29,00,43,7.80
2007,05,29,00,44,7.80
2007,05,29,00,45,7.80
2007,05,29,00,46,7.80
2007,05,29,00,47,7.80
2007,05,29,00,48,7.80
2007,05,29,00,49,7.70
2007,05,29,00,50,7.70
2007,05,29,00,51,7.70
2007,05,29,00,52,7.70
2007,05,29,00,53,7.60
2007,05,29,00,54,7.60
2007,05,29,00,55,7.60
2007,05,29,00,56,7.60
2007,05,29,00,57,7.60
2007,05,29,00,58,7.50
2007,05,29,00,59,7.50
2007,05,29,01,00,7.50
2007,05,29,01,01,7.50
2007,05,29,01,02,7.50
2007,05,29,01,03,7.50
2007,05,29,01,04,7.50
2007,05,29,01,05,7.50
2007,05,29,01,06,7.50
2007,05,29,01,07,7.50
2007,05,29,01,08,7.50
2007,05,29,01,09,7.50
2007,05,29,01,10,7.50
2007,05,29,01,11,7.50
2007,05,29,01,12,7.50
2007,05,29,01,13,7.50
2007,05,29,01,14,7.50
2007,05,29,01,15,7.50
2007,05,29,01,16,7.50
2007,05,29,01,17,7.40
2007,05,29,01,18,7.40
2007,05,29,01,19,7.40
2007,05,29,01,20,7.40
2007,05,29,01,21,7.30
2007,05,29,01,22,7.30
2007,05,29,01,23,7.30
2007,05,29,01,24,7.30
2007,05,29,01,25,7.30
2007,05,29,01,26,7.30
2007,05,29,01,27,7.30
2007,05,29,01,28,7.30
2007,05,29,01,29,7.30
2007,05,29,01,30,7.30
2007,05,29,01,31,7.30
2007,05,29,01,32,7.30
2007,05,29,01,33,7.30
2007,05,29,01,34,7.30
2007,05,29,01,35,7.30
2007,05,29,01,36,7.30
2007,05,29,01,37,7.30
2007,05,29,01,38,7.30
2007,05,29,01,39,7.30
2007,05,29,01,40,7.30
2007,05,29,01,41,7.30
2007,05,29,01,42,7.30
2007,05,29,01,43,7.30
2007,05,29,01,44,7.30
2007,05,29,01,45,7.20
2007,05,29,01,46,7.20
2007,05,29,01,47,7.20
2007,05,29,01,48,7.20
2007,05,29,01,49,7.20
2007,05,29,01,50,7.20
2007,05,29,01,51,7.20
2007,05,29,01,52,7.20
2007,05,29,01,53,7.20
2007,05,29,01,54,7.20
2007,05,29,01,55,7.20
2007,05,29,01,56,7.20
2007,05,29,01,57,7.20
2007,05,29,01,58,7.20
2007,05,29,01,59,7.20
2007,05,29,02,00,7.20
2007,05,29,02,01,7.20
2007,05,29,02,02,7.20
2007,05,29,02,03,7.20
2007,05,29,02,04,7.10
2007,05,29,02,05,7.10
2007,05,29,02,06,7.10
2007,05,29,02,07,7.10
2007,05,29,02,08,7.10
2007,05,29,02,09,7.10
2007,05,29,02,10,7.10
2007,05,29,02,11,7.10
2007,05,29,02,12,7.00
2007,05,29,02,13,7.00
2007,05,29,02,14,7.00
2007,05,29,02,15,7.00
2007,05,29,02,16,7.00
2007,05,29,02,17,7.00
2007,05,29,02,18,6.90
2007,05,29,02,19,6.90
2007,05,29,02,20,6.90
2007,05,29,02,21,6.90
2007,05,29,02,22,6.90
2007,05,29,02,23,6.90
2007,05,29,02,24,6.90
2007,05,29,02,25,6.90
2007,05,29,02,26,6.90
2007,05,29,02,27,6.80
2007,05,29,02,28,6.80
2007,05,29,02,29,6.80
2007,05,29,02,30,6.80
2007,05,29,02,31,6.80
2007,05,29,02,32,6.80
2007,05,29,02,33,6.80
2007,05,29,02,34,6.80
2007,05,29,02,35,6.80
2007,05,29,02,36,6.80
2007,05,29,02,37,6.80
2007,05,29,02,38,6.70
2007,05,29,02,39,6.70
2007,05,29,02,40,6.70
2007,05,29,02,41,6.70
2007,05,29,02,42,6.70
2007,05,29,02,43,6.70
2007,05,29,02,44,6.70
2007,05,29,02,45,6.70
2007,05,29,02,46,6.70
2007,05,29,02,47,6.70
2007,05,29,02,48,6.70
2007,05,29,02,49,6.70
2007,05,29,02,50,6.70
2007,05,29,02,51,6.70
2007,05,29,02,52,6.70
2007,05,29,02,53,6.70
2007,05,29,02,54,6.70
2007,05,29,02,55,6.70
2007,05,29,02,56,6.70
2007,05,29,02,57,6.70
2007,05,29,02,58,6.70
2007,05,29,02,59,6.70
2007,05,29,03,00,6.70
2007,05,29,03,01,6.70
2007,05,29,03,02,6.70
2007,05,29,03,03,6.60
2007,05,29,03,04,6.60
2007,05,29,03,05,6.60
2007,05,29,03,06,6.60
2007,05,29,03,07,6.60
2007,05,29,03,08,6.60
2007,05,29,03,09,6.60
2007,05,29,03,10,6.60
2007,05,29,03,11,6.60
2007,05,29,03,12,6.60
2007,05,29,03,13,6.60
2007,05,29,03,14,6.60
2007,05,29,03,15,6.60
2007,05,29,03,16,6.60
2007,05,29,03,17,6.60
2007,05,29,03,18,6.60
2007,05,29,03,19,6.60
2007,05,29,03,20,6.60
2007,05,29,03,21,6.60
2007,05,29,03,22,6.60
2007,05,29,03,23,6.50
2007,05,29,03,24,6.40
2007,05,29,03,25,6.40
2007,05,29,03,26,6.40
2007,05,29,03,27,6.40
2007,05,29,03,28,6.40
2007,05,29,03,29,6.40
2007,05,29,03,30,6.40
2007,05,29,03,31,6.40
2007,05,29,03,32,6.40
2007,05,29,03,33,6.40
2007,05,29,03,34,6.40
2007,05,29,03,35,6.40
2007,05,29,03,36,6.40
2007,05,29,03,37,6.40
2007,05,29,03,38,6.40
2007,05,29,03,39,6.40
2007,05,29,03,40,6.40
2007,05,29,03,41,6.40
2007,05,29,03,42,6.40
2007,05,29,03,43,6.40
2007,05,29,03,44,6.40
2007,05,29,03,45,6.40
2007,05,29,03,46,6.40
2007,05,29,03,47,6.30
2007,05,29,03,48,6.30
2007,05,29,03,49,6.30
2007,05,29,03,50,6.30
2007,05,29,03,51,6.30
2007,05,29,03,52,6.30
2007,05,29,03,53,6.30
2007,05,29,03,54,6.30
2007,05,29,03,55,6.30
2007,05,29,03,56,6.30
2007,05,29,03,57,6.30
2007,05,29,03,58,6.30
2007,05,29,03,59,6.30
2007,05,29,04,00,6.30
2007,05,29,04,01,6.30
2007,05,29,04,02,6.30
2007,05,29,04,03,6.30
2007,05,29,04,04,6.30
2007,05,29,04,05,6.30
2007,05,29,04,06,6.30
2007,05,29,04,07,6.30
2007,05,29,04,08,6.30
2007,05,29,04,09,6.30
2007,05,29,04,10,6.30
2007,05,29,04,11,6.30
2007,05,29,04,12,6.30
2007,05,29,04,13,6.30
2007,05,29,04,14,6.30
2007,05,29,04,15,6.30
2007,05,29,04,16,6.30
2007,05,29,04,17,6.30
2007,05,29,04,18,6.30
2007,05,29,04,19,6.30
2007,05,29,04,20,6.30
2007,05,29,04,21,6.30
2007,05,29,04,22,6.30
2007,05,29,04,23,6.30
2007,05,29,04,24,6.30
2007,05,29,04,25,6.30
2007,05,29,04,26,6.20
2007,05,29,04,27,6.20
2007,05,29,04,28,6.20
2007,05,29,04,29,6.20
2007,05,29,04,30,6.20
2007,05,29,04,31,6.20
2007,05,29,04,32,6.20
2007,05,29,04,33,6.20
2007,05,29,04,34,6.20
2007,05,29,04,35,6.20
2007,05,29,04,36,6.20
2007,05,29,04,37,6.20
2007,05,29,04,38,6.20
2007,05,29,04,39,6.20
2007,05,29,04,40,6.20
2007,05,29,04,41,6.20
2007,05,29,04,42,6.20
2007,05,29,04,43,6.20
2007,05,29,04,44,6.20
2007,05,29,04,45,6.20
2007,05,29,04,46,6.20
2007,05,29,04,47,6.20
2007,05,29,04,48,6.20
2007,05,29,04,49,6.20
2007,05,29,04,50,6.20
2007,05,29,04,51,6.20
2007,05,29,04,52,6.20
2007,05,29,04,53,6.10
2007,05,29,04,54,6.10
2007,05,29,04,55,6.10
2007,05,29,04,56,6.10
2007,05,29,04,57,6.10
2007,05,29,04,58,6.10
2007,05,29,04,59,6.10
2007,05,29,05,00,6.00
2007,05,29,05,01,6.00
2007,05,29,05,02,6.00
2007,05,29,05,03,6.00
2007,05,29,05,04,5.90
2007,05,29,05,05,5.90
2007,05,29,05,06,5.90
2007,05,29,05,07,5.90
2007,05,29,05,08,5.90
2007,05,29,05,09,5.90
2007,05,29,05,10,5.90
2007,05,29,05,11,6.00
2007,05,29,05,12,6.00
2007,05,29,05,13,6.00
2007,05,29,05,14,6.00
2007,05,29,05,15,6.00
2007,05,29,05,16,6.10
2007,05,29,05,17,6.10
2007,05,29,05,18,6.10
2007,05,29,05,19,6.10
2007,05,29,05,20,6.20
2007,05,29,05,21,6.20
2007,05,29,05,22,6.20
2007,05,29,05,23,6.20
2007,05,29,05,24,6.20
2007,05,29,05,25,6.20
2007,05,29,05,26,6.20
2007,05,29,05,27,6.20
2007,05,29,05,28,6.20
2007,05,29,05,29,6.20
2007,05,29,05,30,6.20
2007,05,29,05,31,6.20
2007,05,29,05,32,6.20
2007,05,29,05,33,6.20
2007,05,29,05,34,6.20
2007,05,29,05,35,6.20
2007,05,29,05,36,6.20
2007,05,29,05,37,6.20
2007,05,29,05,38,6.20
2007,05,29,05,39,6.20
2007,05,29,05,40,6.20
2007,05,29,05,41,6.20
2007,05,29,05,42,6.20
2007,05,29,05,43,6.20
2007,05,29,05,44,6.20
2007,05,29,05,45,6.20
2007,05,29,05,46,6.20
2007,05,29,05,47,6.30
2007,05,29,05,48,6.30
2007,05,29,05,49,6.30
2007,05,29,05,50,6.40
2007,05,29,05,51,6.40
2007,05,29,05,52,6.40
2007,05,29,05,53,6.50
2007,05,29,05,54,6.60
2007,05,29,05,55,6.60
2007,05,29,05,56,6.70
2007,05,29,05,57,6.70
2007,05,29,05,58,6.80
2007,05,29,05,59,6.80
2007,05,29,06,00,6.80
2007,05,29,06,01,6.80
2007,05,29,06,02,6.80
2007,05,29,06,03,6.80
2007,05,29,06,04,6.80
2007,05,29,06,05,6.80
2007,05,29,06,06,6.80
2007,05,29,06,07,6.80
2007,05,29,06,08,6.80
2007,05,29,06,09,6.80
2007,05,29,06,10,6.80
2007,05,29,06,11,6.80
2007,05,29,06,12,6.90
2007,05,29,06,13,6.90
2007,05,29,06,14,6.90
2007,05,29,06,15,6.90
2007,05,29,06,16,7.00
2007,05,29,06,17,7.00
2007,05,29,06,18,7.10
2007,05,29,06,19,7.10
2007,05,29,06,20,7.20
2007,05,29,06,21,7.20
2007,05,29,06,22,7.30
2007,05,29,06,23,7.30
2007,05,29,06,24,7.40
2007,05,29,06,25,7.50
2007,05,29,06,26,7.60
2007,05,29,06,27,7.70
2007,05,29,06,28,7.80
2007,05,29,06,29,7.90
2007,05,29,06,30,8.00
2007,05,29,06,31,8.10
2007,05,29,06,32,8.20
2007,05,29,06,33,8.40
2007,05,29,06,34,8.60
2007,05,29,06,35,8.70
2007,05,29,06,36,8.80
2007,05,29,06,37,9.00
2007,05,29,06,38,9.10
2007,05,29,06,39,9.20
2007,05,29,06,40,9.30
2007,05,29,06,41,9.40
2007,05,29,06,42,9.50
2007,05,29,06,43,9.60
2007,05,29,06,44,9.70
2007,05,29,06,45,9.80
2007,05,29,06,46,10.00
2007,05,29,06,47,10.10
2007,05,29,06,48,10.20
2007,05,29,06,49,10.50
2007,05,29,06,50,10.60
2007,05,29,06,51,10.80
2007,05,29,06,52,10.80
2007,05,29,06,53,11.00
2007,05,29,06,54,11.10
2007,05,29,06,55,11.10
2007,05,29,06,56,11.20
2007,05,29,06,57,11.30
2007,05,29,06,58,11.30
2007,05,29,06,59,11.40
2007,05,29,07,00,11.40
2007,05,29,07,01,11.40
2007,05,29,07,02,11.60
2007,05,29,07,03,11.60
2007,05,29,07,04,11.70
2007,05,29,07,05,11.70
2007,05,29,07,06,11.80
2007,05,29,07,07,11.80
2007,05,29,07,08,11.90
2007,05,29,07,09,12.00
2007,05,29,07,10,12.10
2007,05,29,07,11,12.10
2007,05,29,07,12,12.20
2007,05,29,07,13,12.30
2007,05,29,07,14,12.30
2007,05,29,07,15,12.30
2007,05,29,07,16,12.40
2007,05,29,07,17,12.50
2007,05,29,07,18,12.60
2007,05,29,07,19,12.60
2007,05,29,07,20,12.70
2007,05,29,07,21,12.70
2007,05,29,07,22,12.80
2007,05,29,07,23,12.80
2007,05,29,07,24,12.80
2007,05,29,07,25,12.80
2007,05,29,07,26,12.90
2007,05,29,07,27,12.90
2007,05,29,07,28,13.00
2007,05,29,07,29,13.00
2007,05,29,07,30,13.00
2007,05,29,07,31,13.10
2007,05,29,07,32,13.10
2007,05,29,07,33,13.10
2007,05,29,07,34,13.20
2007,05,29,07,35,13.30
2007,05,29,07,36,13.30
2007,05,29,07,37,13.30
2007,05,29,07,38,13.40
2007,05,29,07,39,13.40
2007,05,29,07,40,13.40
2007,05,29,07,41,13.50
2007,05,29,07,42,13.60
2007,05,29,07,43,13.60
2007,05,29,07,44,13.70
2007,05,29,07,45,13.80
2007,05,29,07,46,13.90
2007,05,29,07,47,14.00
2007,05,29,07,48,14.00
2007,05,29,07,49,14.10
2007,05,29,07,50,14.10
2007,05,29,07,51,14.10
2007,05,29,07,52,14.20
2007,05,29,07,53,14.20
2007,05,29,07,54,14.30
2007,05,29,07,55,14.30
2007,05,29,07,56,14.30
2007,05,29,07,57,14.40
2007,05,29,07,58,14.40
2007,05,29,07,59,14.40
2007,05,29,08,00,14.40
2007,05,29,08,01,14.40
2007,05,29,08,02,14.40
2007,05,29,08,03,14.40
2007,05,29,08,04,14.40
2007,05,29,08,05,14.40
2007,05,29,08,06,14.50
2007,05,29,08,07,14.50
2007,05,29,08,08,14.60
2007,05,29,08,09,14.50
2007,05,29,08,10,14.50
2007,05,29,08,11,14.50
2007,05,29,08,12,14.50
2007,05,29,08,13,14.60
2007,05,29,08,14,14.60
2007,05,29,08,15,14.60
2007,05,29,08,16,14.70
2007,05,29,08,17,14.80
2007,05,29,08,18,14.80
2007,05,29,08,19,14.80
2007,05,29,08,20,14.90
2007,05,29,08,21,14.90
2007,05,29,08,22,14.90
2007,05,29,08,23,15.00
2007,05,29,08,24,15.00
2007,05,29,08,25,15.10
2007,05,29,08,26,15.20
2007,05,29,08,27,15.30
2007,05,29,08,28,15.30
2007,05,29,08,29,15.30
2007,05,29,08,30,15.30
2007,05,29,08,31,15.30
2007,05,29,08,32,15.40
2007,05,29,08,33,15.40
2007,05,29,08,34,15.40
2007,05,29,08,35,15.40
2007,05,29,08,36,15.40
2007,05,29,08,37,15.40
2007,05,29,08,38,15.40
2007,05,29,08,39,15.40
2007,05,29,08,40,15.40
2007,05,29,08,41,15.40
2007,05,29,08,42,15.30
2007,05,29,08,43,15.30
2007,05,29,08,44,15.30
2007,05,29,08,45,15.30
2007,05,29,08,46,15.30
2007,05,29,08,47,15.30
2007,05,29,08,48,15.30
2007,05,29,08,49,15.40
2007,05,29,08,50,15.40
2007,05,29,08,51,15.40
2007,05,29,08,52,15.40
2007,05,29,08,53,15.50
2007,05,29,08,54,15.50
2007,05,29,08,55,15.50
2007,05,29,08,56,15.60
2007,05,29,08,57,15.60
2007,05,29,08,58,15.60
2007,05,29,08,59,15.70
2007,05,29,09,00,15.70
2007,05,29,09,01,15.70
2007,05,29,09,02,15.70
2007,05,29,09,03,15.70
2007,05,29,09,04,15.70
2007,05,29,09,05,15.60
2007,05,29,09,06,15.60
2007,05,29,09,07,15.60
2007,05,29,09,08,15.60
2007,05,29,09,09,15.70
2007,05,29,09,10,15.70
2007,05,29,09,11,15.80
2007,05,29,09,12,15.80
2007,05,29,09,13,15.80
2007,05,29,09,14,15.90
2007,05,29,09,15,15.90
2007,05,29,09,16,16.10
2007,05,29,09,17,16.10
2007,05,29,09,18,16.10
2007,05,29,09,19,16.20
2007,05,29,09,20,16.20
2007,05,29,09,21,16.20
2007,05,29,09,22,16.30
2007,05,29,09,23,16.30
2007,05,29,09,24,16.40
2007,05,29,09,25,16.40
2007,05,29,09,26,16.40
2007,05,29,09,27,16.40
2007,05,29,09,28,16.40
2007,05,29,09,29,16.40
2007,05,29,09,30,16.40
2007,05,29,09,31,16.40
2007,05,29,09,32,16.30
2007,05,29,09,33,16.30
2007,05,29,09,34,16.30
2007,05,29,09,35,16.30
2007,05,29,09,36,16.20
2007,05,29,09,37,16.10
2007,05,29,09,38,16.10
2007,05,29,09,39,16.10
2007,05,29,09,40,16.10
2007,05,29,09,41,16.00
2007,05,29,09,42,16.10
2007,05,29,09,43,16.10
2007,05,29,09,44,16.10
2007,05,29,09,45,16.10
2007,05,29,09,46,16.10
2007,05,29,09,47,16.10
2007,05,29,09,48,16.10
2007,05,29,09,49,16.10
2007,05,29,09,50,16.20
2007,05,29,09,51,16.20
2007,05,29,09,52,16.20
2007,05,29,09,53,16.30
2007,05,29,09,54,16.30
2007,05,29,09,55,16.30
2007,05,29,09,56,16.30
2007,05,29,09,57,16.30
2007,05,29,09,58,16.30
2007,05,29,09,59,16.30
2007,05,29,10,00,16.30
2007,05,29,10,01,16.30
2007,05,29,10,02,16.30
2007,05,29,10,03,16.30
2007,05,29,10,04,16.40
2007,05,29,10,05,16.40
2007,05,29,10,06,16.40
2007,05,29,10,07,16.40
2007,05,29,10,08,16.40
2007,05,29,10,09,16.40
2007,05,29,10,10,16.60
2007,05,29,10,11,16.70
2007,05,29,10,12,16.70
2007,05,29,10,13,16.60
2007,05,29,10,14,16.60
2007,05,29,10,15,16.60
2007,05,29,10,16,16.60
2007,05,29,10,17,16.60
2007,05,29,10,18,16.70
2007,05,29,10,19,16.70
2007,05,29,10,20,16.80
2007,05,29,10,21,16.70
2007,05,29,10,22,16.80
2007,05,29,10,23,16.90
2007,05,29,10,24,16.90
2007,05,29,10,25,16.90
2007,05,29,10,26,16.90
2007,05,29,10,27,17.00
2007,05,29,10,28,17.00
2007,05,29,10,29,17.20
2007,05,29,10,30,17.30
2007,05,29,10,31,17.30
2007,05,29,10,32,17.30
2007,05,29,10,33,17.30
2007,05,29,10,34,17.40
2007,05,29,10,35,17.50
2007,05,29,10,36,17.50
2007,05,29,10,37,17.30
2007,05,29,10,38,17.30
2007,05,29,10,39,17.30
2007,05,29,10,40,17.30
2007,05,29,10,41,17.30
2007,05,29,10,42,17.30
2007,05,29,10,43,17.20
2007,05,29,10,44,17.10
2007,05,29,10,45,17.00
2007,05,29,10,46,17.00
2007,05,29,10,47,16.90
2007,05,29,10,48,16.90
2007,05,29,10,49,16.90
2007,05,29,10,50,16.90
2007,05,29,10,51,16.90
2007,05,29,10,52,17.00
2007,05,29,10,53,17.00
2007,05,29,10,54,17.00
2007,05,29,10,55,17.00
2007,05,29,10,56,17.10
2007,05,29,10,57,17.20
2007,05,29,10,58,17.20
2007,05,29,10,59,17.20
2007,05,29,11,00,17.20
2007,05,29,11,01,17.20
2007,05,29,11,02,17.30
2007,05,29,11,03,17.40
2007,05,29,11,04,17.40
2007,05,29,11,05,17.50
2007,05,29,11,06,17.50
2007,05,29,11,07,17.50
2007,05,29,11,08,17.60
2007,05,29,11,09,17.70
2007,05,29,11,10,17.70
2007,05,29,11,11,17.60
2007,05,29,11,12,17.70
2007,05,29,11,13,17.70
2007,05,29,11,14,17.70
2007,05,29,11,15,17.90
2007,05,29,11,16,17.90
2007,05,29,11,17,17.80
2007,05,29,11,18,17.70
2007,05,29,11,19,17.70
2007,05,29,11,20,17.60
2007,05,29,11,21,17.50
2007,05,29,11,22,17.50
2007,05,29,11,23,17.50
2007,05,29,11,24,17.50
2007,05,29,11,25,17.50
2007,05,29,11,26,17.50
2007,05,29,11,27,17.50
2007,05,29,11,28,17.50
2007,05,29,11,29,17.50
2007,05,29,11,30,17.70
2007,05,29,11,31,17.80
2007,05,29,11,32,17.90
2007,05,29,11,33,17.90
2007,05,29,11,34,17.90
2007,05,29,11,35,18.00
2007,05,29,11,36,18.10
2007,05,29,11,37,18.10
2007,05,29,11,38,18.10
2007,05,29,11,39,18.00
2007,05,29,11,40,17.90
2007,05,29,11,41,18.00
2007,05,29,11,42,18.20
2007,05,29,11,43,18.20
2007,05,29,11,44,18.20
2007,05,29,11,45,18.10
2007,05,29,11,46,18.10
2007,05,29,11,47,18.10
2007,05,29,11,48,18.10
2007,05,29,11,49,18.10
2007,05,29,11,50,18.20
2007,05,29,11,51,18.20
2007,05,29,11,52,18.20
2007,05,29,11,53,18.10
2007,05,29,11,54,18.10
2007,05,29,11,55,18.10
2007,05,29,11,56,18.10
2007,05,29,11,57,18.20
2007,05,29,11,58,18.20
2007,05,29,11,59,18.20
2007,05,29,12,00,18.20
2007,05,29,12,01,18.10
2007,05,29,12,02,18.00
2007,05,29,12,03,17.90
2007,05,29,12,04,17.90
2007,05,29,12,05,17.90
2007,05,29,12,06,17.90
2007,05,29,12,07,18.00
2007,05,29,12,08,18.10
2007,05,29,12,09,18.00
2007,05,29,12,10,18.10
2007,05,29,12,11,18.10
2007,05,29,12,12,18.20
2007,05,29,12,13,18.20
2007,05,29,12,14,18.20
2007,05,29,12,15,18.30
2007,05,29,12,16,18.40
2007,05,29,12,17,18.50
2007,05,29,12,18,18.60
2007,05,29,12,19,18.70
2007,05,29,12,20,18.70
2007,05,29,12,21,18.70
2007,05,29,12,22,18.70
2007,05,29,12,23,18.70
2007,05,29,12,24,18.60
2007,05,29,12,25,18.50
2007,05,29,12,26,18.50
2007,05,29,12,27,18.60
2007,05,29,12,28,18.70
2007,05,29,12,29,18.70
2007,05,29,12,30,18.80
2007,05,29,12,31,18.80
2007,05,29,12,32,18.80
2007,05,29,12,33,18.90
2007,05,29,12,34,18.90
2007,05,29,12,35,18.90
2007,05,29,12,36,18.90
2007,05,29,12,37,19.00
2007,05,29,12,38,19.10
2007,05,29,12,39,19.10
2007,05,29,12,40,19.10
2007,05,29,12,41,19.10
2007,05,29,12,42,19.10
2007,05,29,12,43,19.10
2007,05,29,12,44,19.10
2007,05,29,12,45,19.20
2007,05,29,12,46,19.30
2007,05,29,12,47,19.50
2007,05,29,12,48,19.50
2007,05,29,12,49,19.60
2007,05,29,12,50,19.60
2007,05,29,12,51,19.60
2007,05,29,12,52,19.60
2007,05,29,12,53,19.50
2007,05,29,12,54,19.50
2007,05,29,12,55,19.50
2007,05,29,12,56,19.50
2007,05,29,12,57,19.50
2007,05,29,12,58,19.50
2007,05,29,12,59,19.50
2007,05,29,13,00,19.50
2007,05,29,13,01,19.40
2007,05,29,13,02,19.50
2007,05,29,13,03,19.50
2007,05,29,13,04,19.60
2007,05,29,13,05,19.70
2007,05,29,13,06,19.70
2007,05,29,13,07,19.80
2007,05,29,13,08,19.80
2007,05,29,13,09,19.70
2007,05,29,13,10,19.70
2007,05,29,13,11,19.70
2007,05,29,13,12,19.80
2007,05,29,13,13,19.80
2007,05,29,13,14,19.80
2007,05,29,13,15,19.80
2007,05,29,13,16,19.90
2007,05,29,13,17,19.90
2007,05,29,13,18,19.80
2007,05,29,13,19,19.80
2007,05,29,13,20,19.80
2007,05,29,13,21,19.90
2007,05,29,13,22,19.90
2007,05,29,13,23,20.10
2007,05,29,13,24,20.10
2007,05,29,13,25,20.20
2007,05,29,13,26,20.20
2007,05,29,13,27,20.10
2007,05,29,13,28,20.10
2007,05,29,13,29,20.10
2007,05,29,13,30,20.10
2007,05,29,13,31,20.10
2007,05,29,13,32,20.10
2007,05,29,13,33,20.20
2007,05,29,13,34,20.20
2007,05,29,13,35,20.30
2007,05,29,13,36,20.40
2007,05,29,13,37,20.40
2007,05,29,13,38,20.40
2007,05,29,13,39,20.40
2007,05,29,13,40,20.40
2007,05,29,13,41,20.40
2007,05,29,13,42,20.40
2007,05,29,13,43,20.50
2007,05,29,13,44,20.50
2007,05,29,13,45,20.50
2007,05,29,13,46,20.50
2007,05,29,13,47,20.60
2007,05,29,13,48,20.70
2007,05,29,13,49,20.80
2007,05,29,13,50,20.90
2007,05,29,13,51,21.00
2007,05,29,13,52,21.20
2007,05,29,13,53,21.20
2007,05,29,13,54,21.20
2007,05,29,13,55,21.10
2007,05,29,13,56,21.10
2007,05,29,13,57,21.10
2007,05,29,13,58,21.00
2007,05,29,13,59,20.90
2007,05,29,14,00,20.90
2007,05,29,14,01,20.90
2007,05,29,14,02,20.80
2007,05,29,14,03,20.90
2007,05,29,14,04,20.90
2007,05,29,14,05,20.90
2007,05,29,14,06,20.90
2007,05,29,14,07,21.00
2007,05,29,14,08,21.00
2007,05,29,14,09,21.10
2007,05,29,14,10,21.10
2007,05,29,14,11,21.20
2007,05,29,14,12,21.10
2007,05,29,14,13,21.10
2007,05,29,14,14,21.10
2007,05,29,14,15,21.20
2007,05,29,14,16,21.20
2007,05,29,14,17,21.30
2007,05,29,14,18,21.40
2007,05,29,14,19,21.40
2007,05,29,14,20,21.50
2007,05,29,14,21,21.60
2007,05,29,14,22,21.60
2007,05,29,14,23,21.50
2007,05,29,14,24,21.30
2007,05,29,14,25,21.30
2007,05,29,14,26,21.30
2007,05,29,14,27,21.40
2007,05,29,14,28,21.50
2007,05,29,14,29,21.60
2007,05,29,14,30,21.60
2007,05,29,14,31,21.60
2007,05,29,14,32,21.60
2007,05,29,14,33,21.80
2007,05,29,14,34,21.90
2007,05,29,14,35,21.90
2007,05,29,14,36,22.00
2007,05,29,14,37,22.00
2007,05,29,14,38,22.00
2007,05,29,14,39,22.20
2007,05,29,14,40,22.20
2007,05,29,14,41,22.20
2007,05,29,14,42,22.20
2007,05,29,14,43,22.20
2007,05,29,14,44,22.20
2007,05,29,14,45,22.20
2007,05,29,14,46,22.20
2007,05,29,14,47,22.20
2007,05,29,14,48,22.20
2007,05,29,14,49,22.20
2007,05,29,14,50,22.20
2007,05,29,14,51,22.10
2007,05,29,14,52,22.10
2007,05,29,14,53,22.10
2007,05,29,14,54,22.10
2007,05,29,14,55,22.10
2007,05,29,14,56,22.10
2007,05,29,14,57,22.00
2007,05,29,14,58,21.90
2007,05,29,14,59,21.80
2007,05,29,15,00,21.80
2007,05,29,15,01,21.80
2007,05,29,15,02,21.90
2007,05,29,15,03,22.00
2007,05,29,15,04,22.10
2007,05,29,15,05,22.10
2007,05,29,15,06,22.20
2007,05,29,15,07,22.30
2007,05,29,15,08,22.30
2007,05,29,15,09,22.30
2007,05,29,15,10,22.30
2007,05,29,15,11,22.20
2007,05,29,15,12,22.20
2007,05,29,15,13,22.20
2007,05,29,15,14,22.10
2007,05,29,15,15,22.10
2007,05,29,15,16,22.10
2007,05,29,15,17,22.00
2007,05,29,15,18,22.00
2007,05,29,15,19,22.00
2007,05,29,15,20,21.90
2007,05,29,15,21,21.90
2007,05,29,15,22,21.90
2007,05,29,15,23,21.90
2007,05,29,15,24,22.00
2007,05,29,15,25,22.10
2007,05,29,15,26,22.20
2007,05,29,15,27,22.20
2007,05,29,15,28,22.30
2007,05,29,15,29,22.30
2007,05,29,15,30,22.40
2007,05,29,15,31,22.50
2007,05,29,15,32,22.60
2007,05,29,15,33,22.60
2007,05,29,15,34,22.60
2007,05,29,15,35,22.50
2007,05,29,15,36,22.50
2007,05,29,15,37,22.40
2007,05,29,15,38,22.40
2007,05,29,15,39,22.40
2007,05,29,15,40,22.50
2007,05,29,15,41,22.60
2007,05,29,15,42,22.60
2007,05,29,15,43,22.60
2007,05,29,15,44,22.60
2007,05,29,15,45,22.70
2007,05,29,15,46,22.90
2007,05,29,15,47,22.90
2007,05,29,15,48,22.90
2007,05,29,15,49,22.80
2007,05,29,15,50,22.80
2007,05,29,15,51,22.80
2007,05,29,15,52,22.80
2007,05,29,15,53,22.70
2007,05,29,15,54,22.70
2007,05,29,15,55,22.70
2007,05,29,15,56,22.70
2007,05,29,15,57,22.70
2007,05,29,15,58,22.70
2007,05,29,15,59,22.70
2007,05,29,16,00,22.70
2007,05,29,16,01,22.70
2007,05,29,16,02,22.70
2007,05,29,16,03,22.70
2007,05,29,16,04,22.70
2007,05,29,16,05,22.80
2007,05,29,16,06,22.80
2007,05,29,16,07,22.80
2007,05,29,16,08,22.80
2007,05,29,16,09,22.90
2007,05,29,16,10,22.90
2007,05,29,16,11,22.80
2007,05,29,16,12,22.80
2007,05,29,16,13,22.70
2007,05,29,16,14,22.70
2007,05,29,16,15,22.70
2007,05,29,16,16,22.80
2007,05,29,16,17,22.80
2007,05,29,16,18,22.80
2007,05,29,16,19,22.90
2007,05,29,16,20,22.90
2007,05,29,16,21,23.00
2007,05,29,16,22,23.10
2007,05,29,16,23,23.10
2007,05,29,16,24,23.10
2007,05,29,16,25,23.00
2007,05,29,16,26,22.90
2007,05,29,16,27,22.90
2007,05,29,16,28,22.90
2007,05,29,16,29,22.90
2007,05,29,16,30,23.00
2007,05,29,16,31,23.10
2007,05,29,16,32,23.10
2007,05,29,16,33,23.20
2007,05,29,16,34,23.20
2007,05,29,16,35,23.20
2007,05,29,16,36,23.20
2007,05,29,16,37,23.30
2007,05,29,16,38,23.30
2007,05,29,16,39,23.30
2007,05,29,16,40,23.30
2007,05,29,16,41,23.30
2007,05,29,16,42,23.20
2007,05,29,16,43,23.10
2007,05,29,16,44,23.10
2007,05,29,16,45,23.10
2007,05,29,16,46,23.20
2007,05,29,16,47,23.20
2007,05,29,16,48,23.10
2007,05,29,16,49,23.00
2007,05,29,16,50,22.90
2007,05,29,16,51,22.90
2007,05,29,16,52,22.90
2007,05,29,16,53,22.90
2007,05,29,16,54,22.90
2007,05,29,16,55,22.80
2007,05,29,16,56,22.90
2007,05,29,16,57,22.90
2007,05,29,16,58,22.90
2007,05,29,16,59,22.90
2007,05,29,17,00,22.90
2007,05,29,17,01,23.00
2007,05,29,17,02,23.10
2007,05,29,17,03,23.20
2007,05,29,17,04,23.20
2007,05,29,17,05,23.20
2007,05,29,17,06,23.10
2007,05,29,17,07,23.10
2007,05,29,17,08,23.00
2007,05,29,17,09,22.90
2007,05,29,17,10,22.90
2007,05,29,17,11,22.90
2007,05,29,17,12,22.90
2007,05,29,17,13,22.90
2007,05,29,17,14,22.90
2007,05,29,17,15,22.90
2007,05,29,17,16,22.90
2007,05,29,17,17,22.90
2007,05,29,17,18,22.90
2007,05,29,17,19,22.90
2007,05,29,17,20,22.90
2007,05,29,17,21,22.90
2007,05,29,17,22,22.90
2007,05,29,17,23,22.80
2007,05,29,17,24,22.80
2007,05,29,17,25,22.80
2007,05,29,17,26,22.80
2007,05,29,17,27,22.90
2007,05,29,17,28,22.90
2007,05,29,17,29,22.90
2007,05,29,17,30,22.90
2007,05,29,17,31,22.90
2007,05,29,17,32,22.80
2007,05,29,17,33,22.70
2007,05,29,17,34,22.70
2007,05,29,17,35,22.70
2007,05,29,17,36,22.60
2007,05,29,17,37,22.50